This demonstration page uses our WeatherBlox Daily Observations layout. Learn more.

Left ArrowRight Arrow

38.20091, -84.87328

Hourly Observations for April 7, 2022

Temp ( °F °C ) Dew Point ( °F °C ) Humidity (%) Winds ( mph kmh ) Pressure ( in mb ) Visibility ( mi km ) Precip ( " mm )
12:53 am 00:53 Clear with Mist and Fog 48 8.9 47 8.3 96 96 SSW 5 7 29.74 1007 6 10 0.00 0.00
1:53 am 01:53 Clear with Mist and Fog 47 8.3 46 7.8 97 97 SW 8 13 29.75 1007 6 10 0.00 0.00
2:53 am 02:53 Clear with Mist and Fog 47 8.3 46 7.8 97 97 SW 10 17 29.73 1007 6 10 0.00 0.00
3:53 am 03:53 Clear with Mist and Fog 45 7.2 44 6.7 97 97 SW 8 13 29.72 1006 5 8 0.00 0.00
4:53 am 04:53 Clear with Mist and Fog 44 6.7 43 6.1 96 96 SW 7 11 29.71 1006 5 8 0.00 0.00
5:53 am 05:53 Mostly Cloudy 44 6.7 43 6.1 96 96 SW 5 7 29.70 1006 7 11 0.00 0.00
6:53 am 06:53 Cloudy with Rain 47 8.3 45 7.2 93 93 SW 6 9 29.69 1006 6 10 0.02 0.51
7:45 am 07:45 Cloudy 48 8.9 45 7.2 89 89 WSW 6 9 29.71 1006 10 16 0.02 0.51
7:53 am 07:53 Cloudy 48 8.9 45 7.2 89 89 SW 8 13 29.70 1006 10 16 0.02 0.51
8:06 am 08:06 Cloudy 48 8.9 46 7.8 93 93 WSW 6 9 29.71 1006 10 16 0.00 0.00
8:22 am 08:22 undefined 48 8.9 46 7.8 93 93 WSW 8 13 29.72 1007 10 16 0.00 0.00
8:53 am 08:53 undefined 49 9.4 46 7.8 90 90 WSW 7 11 29.71 1006 10 16 0.00 0.00
9:00 am 09:00 Mostly Cloudy 49 9.4 46 7.8 90 90 WSW 7 11 29.72 1006 10 16 0.00 0.00
9:25 am 09:25 Partly Cloudy 49 9.4 43 6.1 80 80 W 8 13 29.72 1006 10 16 0.00 0.00
9:47 am 09:47 Mostly Cloudy with Haze 50 10 43 6 76 76 WSW 12 19 29.72 1006 1 2 0.00 0.00
9:53 am 09:53 Mostly Cloudy 50 10 43 6.1 77 77 WSW 7 11 29.71 1006 N/A 0.00 0.00
10:27 am 10:27 Partly Cloudy 50 10 40 4.4 68 68 undefined N/A 29.72 1006 N/A 0.00 0.00
10:46 am 10:46 Mostly Cloudy 50 10 41 5 71 71 W 6 9 29.72 1006 10 16 0.00 0.00
10:53 am 10:53 Mostly Cloudy 50 10 40 4.4 68 68 W 9 15 29.72 1006 10 16 0.00 0.00
11:00 am 11:00 Mostly Cloudy 50 10 39 3.9 66 66 W 10 17 29.73 1007 10 16 0.00 0.00
11:53 am 11:53 Cloudy 51 10.6 37 2.8 59 59 W 13 20 29.72 1006 10 16 0.00 0.00
12:53 pm 12:53 Mostly Cloudy 51 10.6 34 1.1 52 52 W 16 26 29.72 1006 10 16 0.00 0.00
1:53 pm 13:53 Mostly Cloudy 54 12.2 33 0.6 45 45 WSW 15 24 29.71 1006 10 16 0.00 0.00
2:53 pm 14:53 Partly Cloudy 55 12.8 29 -1.7 37 37 W 10 17 29.70 1006 10 16 0.00 0.00
3:53 pm 15:53 Mostly Cloudy 54 12.2 27 -2.8 35 35 W 15 24 29.70 1006 10 16 0.00 0.00
4:53 pm 16:53 Cloudy 54 12.2 27 -2.8 35 35 W 12 19 29.70 1006 10 16 0.00 0.00
5:53 pm 17:53 Cloudy 52 11.1 28 -2.2 40 40 W 10 17 29.72 1007 10 16 0.00 0.00
6:53 pm 18:53 Cloudy 51 10.6 31 -0.6 46 46 W 7 11 29.74 1007 10 16 0.00 0.00
7:53 pm 19:53 Cloudy 50 10 32 0 50 50 W 6 9 29.76 1008 10 16 0.00 0.00
8:53 pm 20:53 Mostly Cloudy 44 6.7 36 2.2 73 73 WSW 5 7 29.75 1008 10 16 0.02 0.51
9:53 pm 21:53 Mostly Cloudy 43 6.1 36 2.2 76 76 SW 3 6 29.76 1008 10 16 0.00 0.00
10:53 pm 22:53 Cloudy 42 5.6 37 2.8 82 82 Calm 29.76 1008 10 16 0.00 0.00
11:53 pm 23:53 Cloudy 44 6.7 37 2.8 76 76 W 3 6 29.75 1007 10 16 0.00 0.00

Powered by AerisWeather